TimeEDT,TemperatureF,Dew PointF,Humidity,Sea Level PressureIn,VisibilityMPH,Wind Direction,Wind SpeedMPH,Gust SpeedMPH,PrecipitationIn,Events,Conditions,WindDirDegrees,DateUTC
12:15 AM,44.6,35.6,71,30.26,10.0,SW,8.1,-,N/A,,Scattered Clouds,220,2012-10-13 04:15:00
12:35 AM,44.6,33.8,66,30.25,10.0,SW,8.1,-,N/A,,Partly Cloudy,220,2012-10-13 04:35:00
12:55 AM,44.6,33.8,66,30.24,10.0,SSW,8.1,-,N/A,,Clear,210,2012-10-13 04:55:00
1:15 AM,46.4,33.8,62,30.24,10.0,SSW,12.7,-,N/A,,Partly Cloudy,210,2012-10-13 05:15:00
1:55 AM,46.4,35.6,66,30.22,10.0,SSW,12.7,16.1,N/A,,Partly Cloudy,200,2012-10-13 05:55:00
2:15 AM,46.4,35.6,66,30.22,10.0,SSW,12.7,-,N/A,,Mostly Cloudy,210,2012-10-13 06:15:00
2:35 AM,46.4,35.6,66,30.21,10.0,SSW,11.5,18.4,N/A,,Overcast,200,2012-10-13 06:35:00
2:55 AM,46.4,35.6,66,30.21,10.0,SSW,11.5,20.7,N/A,,Mostly Cloudy,210,2012-10-13 06:55:00
3:15 AM,46.4,33.8,62,30.20,10.0,SSW,9.2,-,N/A,,Scattered Clouds,210,2012-10-13 07:15:00
3:35 AM,46.4,33.8,62,30.19,10.0,SSW,11.5,17.3,N/A,,Clear,210,2012-10-13 07:35:00
3:55 AM,44.6,33.8,66,30.18,10.0,SW,5.8,-,N/A,,Clear,230,2012-10-13 07:55:00
4:15 AM,42.8,35.6,76,30.17,10.0,SW,5.8,-,N/A,,Partly Cloudy,230,2012-10-13 08:15:00
4:35 AM,42.8,33.8,70,30.17,10.0,SW,4.6,-,N/A,,Clear,220,2012-10-13 08:35:00
4:55 AM,44.6,35.6,71,30.16,10.0,SSW,6.9,-,N/A,,Scattered Clouds,210,2012-10-13 08:55:00
5:15 AM,46.4,35.6,66,30.16,10.0,SSW,10.4,-,N/A,,Overcast,200,2012-10-13 09:15:00
5:35 AM,48.2,35.6,62,30.14,10.0,South,11.5,17.3,N/A,,Overcast,190,2012-10-13 09:35:00
5:55 AM,48.2,37.4,66,30.14,10.0,South,16.1,-,N/A,,Overcast,190,2012-10-13 09:55:00
6:15 AM,48.2,37.4,66,30.13,10.0,SSW,15.0,23.0,N/A,,Overcast,200,2012-10-13 10:15:00
6:55 AM,46.4,39.2,76,30.11,10.0,SSW,19.6,28.8,0.01,,Overcast,200,2012-10-13 10:55:00
7:15 AM,44.6,37.4,76,30.10,10.0,SSW,12.7,18.4,N/A,,Overcast,210,2012-10-13 11:15:00
7:35 AM,46.4,39.2,76,30.10,10.0,SSW,10.4,-,N/A,,Overcast,210,2012-10-13 11:35:00
7:55 AM,44.6,39.2,81,30.08,10.0,SW,9.2,-,N/A,,Overcast,220,2012-10-13 11:55:00
8:15 AM,44.6,41.0,87,30.07,10.0,South,10.4,-,0.01,,Overcast,190,2012-10-13 12:15:00
8:35 AM,46.4,41.0,81,30.05,10.0,South,12.7,23.0,0.02,,Overcast,180,2012-10-13 12:35:00
8:55 AM,46.4,41.0,81,30.05,7.0,South,12.7,23.0,0.04,,Overcast,180,2012-10-13 12:55:00
9:15 AM,46.4,42.8,87,30.03,7.0,South,15.0,23.0,0.01,,Mostly Cloudy,180,2012-10-13 13:15:00
9:55 AM,46.4,42.8,87,30.01,2.5,South,12.7,18.4,0.02,,Overcast,170,2012-10-13 13:55:00
10:35 AM,46.4,44.6,93,29.97,2.5,South,18.4,25.3,N/A,,Overcast,180,2012-10-13 14:35:00
10:55 AM,46.4,44.6,93,29.95,3.0,South,19.6,25.3,0.01,,Overcast,170,2012-10-13 14:55:00
11:15 AM,46.4,44.6,93,29.95,7.0,South,15.0,24.2,N/A,,Overcast,170,2012-10-13 15:15:00
11:35 AM,46.4,44.6,93,29.95,1.8,South,18.4,27.6,N/A,,Overcast,170,2012-10-13 15:35:00
11:55 AM,46.4,44.6,93,29.94,1.8,South,16.1,28.8,N/A,,Overcast,170,2012-10-13 15:55:00
12:15 PM,46.4,44.6,93,29.93,2.0,South,15.0,24.2,0.01,,Overcast,180,2012-10-13 16:15:00
12:35 PM,48.2,44.6,87,29.92,4.0,South,12.7,20.7,0.02,,Overcast,180,2012-10-13 16:35:00
12:55 PM,48.2,44.6,87,29.90,8.0,South,17.3,23.0,0.02,,Overcast,180,2012-10-13 16:55:00
1:35 PM,48.2,44.6,87,29.88,3.0,South,12.7,19.6,0.03,,Overcast,180,2012-10-13 17:35:00
1:55 PM,48.2,44.6,87,29.86,3.0,South,12.7,17.3,0.04,,Overcast,190,2012-10-13 17:55:00
2:15 PM,48.2,46.4,93,29.84,10.0,South,9.2,18.4,N/A,,Overcast,190,2012-10-13 18:15:00
2:35 PM,48.2,46.4,93,29.82,10.0,South,11.5,17.3,N/A,,Overcast,190,2012-10-13 18:35:00
2:55 PM,48.2,46.4,93,29.80,5.0,South,10.4,-,N/A,,Overcast,190,2012-10-13 18:55:00
3:15 PM,50.0,46.4,87,29.79,10.0,South,10.4,-,0.01,,Overcast,190,2012-10-13 19:15:00
3:35 PM,50.0,46.4,87,29.79,10.0,SSW,10.4,17.3,0.01,,Overcast,200,2012-10-13 19:35:00
3:55 PM,50.0,46.4,87,29.78,10.0,SSW,9.2,16.1,0.01,,Overcast,210,2012-10-13 19:55:00
4:15 PM,50.0,46.4,87,29.78,9.0,SW,9.2,-,0.03,,Overcast,220,2012-10-13 20:15:00
4:35 PM,50.0,46.4,87,29.77,8.0,SW,5.8,-,0.04,,Overcast,220,2012-10-13 20:35:00
4:55 PM,50.0,46.4,87,29.77,7.0,SW,8.1,-,0.05,,Overcast,230,2012-10-13 20:55:00
5:15 PM,48.2,46.4,93,29.76,6.0,SW,4.6,-,0.04,,Overcast,220,2012-10-13 21:15:00
5:35 PM,48.2,46.4,93,29.75,5.0,Calm,Calm,-,0.08,,Overcast,0,2012-10-13 21:35:00
5:55 PM,48.2,46.4,93,29.75,9.0,SSW,3.5,-,0.10,,Overcast,200,2012-10-13 21:55:00
6:15 PM,48.2,46.4,93,29.76,8.0,SW,3.5,-,0.01,,Overcast,220,2012-10-13 22:15:00
6:35 PM,48.2,46.4,93,29.76,10.0,Calm,Calm,-,0.02,,Overcast,0,2012-10-13 22:35:00
6:55 PM,48.2,46.4,93,29.76,10.0,SSW,3.5,-,0.02,,Overcast,210,2012-10-13 22:55:00
7:15 PM,48.2,46.4,93,29.75,10.0,SSW,3.5,-,N/A,,Overcast,210,2012-10-13 23:15:00
7:35 PM,48.2,46.4,93,29.76,9.0,Calm,Calm,-,N/A,,Overcast,0,2012-10-13 23:35:00
8:35 PM,48.2,46.4,93,29.77,10.0,Calm,Calm,-,N/A,,Overcast,0,2012-10-14 00:35:00
8:55 PM,48.2,46.4,93,29.77,10.0,WNW,3.5,-,N/A,,Overcast,300,2012-10-14 00:55:00
9:35 PM,48.2,46.4,93,29.77,10.0,NW,3.5,-,N/A,,Overcast,310,2012-10-14 01:35:00
9:55 PM,48.2,46.4,93,29.78,10.0,NW,4.6,-,N/A,,Overcast,310,2012-10-14 01:55:00
10:15 PM,48.2,46.4,93,29.79,5.0,NW,5.8,-,N/A,,Overcast,320,2012-10-14 02:15:00
10:35 PM,48.2,46.4,93,29.78,4.0,NW,5.8,-,N/A,,Overcast,320,2012-10-14 02:35:00
10:55 PM,48.2,44.6,87,29.77,9.0,NW,4.6,-,N/A,,Overcast,320,2012-10-14 02:55:00
11:15 PM,48.2,44.6,87,29.77,10.0,NW,3.5,-,N/A,,Overcast,320,2012-10-14 03:15:00